Location: B�di�
(14.6834°N, 3.1047°W)
Time: 15:10:56
(UTC+00:00)

CSL-04 Rocket - Pass Details

Date: 24 January 2020
Orbit: 806 x 860 km, 99.0° (Epoch: 24 February)

Event Time Altitude Azimuth Distance (km) Brightness Sun altitude
Rises 18:36:16 0° 148° (SSE) 3,367 6.7 -7.5°
Reaches altitude 10° 18:38:46 10° 140° (SE) 2,442 5.9 -8.1°
Maximum altitude 18:43:42 37° 74° (ENE) 1,295 4.2 -9.2°
Drops below altitude 10° 18:48:41 10° 9° (N) 2,474 5.9 -10.4°
Sets 18:51:14 0° 1° (N) 3,416 6.7 -10.9°
